DW9353 Weather Reports


time (UTC)temp
C
wind
direction
speed
KPH
gust
KPH
rain 1hr
cm
rain 24hr
cm
rain mn
cm
humidity
%
barometer
mb
20260507212003 16 265 3.2 14.5 0.00 0.36 0.05 34 1004.2
20260507211503 16 266 3.2 17.7 0.00 0.36 0.05 34 1004.1
20260507211004 16 275 1.6 17.7 0.00 0.36 0.05 35 1004.1
20260507210503 16 317 3.2 16.1 0.00 0.36 0.05 36 1004.1
20260507210005 16 292 4.8 19.3 0.00 0.36 0.05 34 1004.1
20260507205504 16 270 4.8 19.3 0.00 0.38 0.05 33 1004.0
20260507205003 16 270 3.2 14.5 0.00 0.38 0.05 31 1004.0
20260507204503 16 289 3.2 12.9 0.00 0.41 0.05 33 1003.8
20260507204004 16 303 3.2 12.9 0.00 0.41 0.05 33 1003.8
20260507203503 16 292 3.2 11.3 0.00 0.41 0.05 35 1003.9
20260507203003 16 315 4.8 20.9 0.00 0.41 0.05 35 1003.9
20260507202504 17 293 6.4 22.5 0.00 0.43 0.05 31 1003.9
20260507202004 17 243 4.8 22.5 0.00 0.46 0.05 34 1003.8
20260507201503 17 254 3.2 14.5 0.00 0.46 0.05 35 1003.9
20260507201004 17 250 3.2 9.7 0.00 0.46 0.05 32 1003.9
20260507200503 17 249 3.2 9.7 0.00 0.48 0.05 31 1003.8
20260507200003 17 273 3.2 11.3 0.00 0.48 0.05 30 1004.0
20260507195504 17 252 3.2 11.3 0.00 0.48 0.05 31 1004.0
20260507195003 18 246 3.2 9.7 0.00 0.48 0.05 33 1004.2
20260507194503 18 261 3.2 12.9 0.00 0.48 0.05 31 1004.1
20260507194004 18 269 3.2 12.9 0.00 0.48 0.05 33 1004.1
20260507193503 18 268 3.2 17.7 0.00 0.48 0.05 33 1004.2
20260507192503 17 276 4.8 14.5 0.00 0.51 0.05 35 1004.2
20260507192003 17 273 4.8 17.7 0.00 0.51 0.05 35 1004.4
20260507191504 16 296 4.8 17.7 0.00 0.51 0.05 35 1004.4
20260507191004 16 312 4.8 14.5 0.00 0.53 0.05 35 1004.3
20260507190504 17 316 3.2 12.9 0.00 0.53 0.05 35 1004.6
20260507185503 17 281 4.8 12.9 0.00 0.56 0.05 36 1004.6
20260507185004 17 269 4.8 12.9 0.00 0.56 0.05 36 1004.8
20260507184504 17 257 3.2 12.9 0.00 0.58 0.05 39 1004.8
20260507184003 17 239 4.8 11.3 0.00 0.58 0.05 36 1004.7
20260507183503 17 258 4.8 12.9 0.00 0.61 0.05 37 1004.7
20260507183004 17 300 4.8 19.3 0.00 0.61 0.05 35 1004.8
20260507182503 17 302 4.8 19.3 0.00 0.61 0.05 34 1004.8
20260507182004 17 302 6.4 19.3 0.00 0.61 0.05 34 1004.7
20260507181003 17 337 4.8 20.9 0.00 0.64 0.05 38 1004.8
20260507180504 17 345 4.8 22.5 0.00 0.64 0.05 38 1004.9
20260507175504 17 296 4.8 22.5 0.00 0.64 0.05 35 1004.9
20260507175003 17 295 4.8 22.5 0.00 0.64 0.05 38 1004.8
20260507174503 17 292 4.8 14.5 0.00 0.64 0.05 38 1004.6
20260507174004 17 286 4.8 20.9 0.00 0.64 0.05 38 1004.6
20260507173004 17 308 6.4 16.1 0.00 0.64 0.05 36 1004.9
20260507172004 17 309 6.4 25.7 0.00 0.64 0.05 33 1004.9
20260507171004 17 284 4.8 25.7 0.00 0.64 0.05 36 1005.0
20260507170503 17 257 4.8 19.3 0.00 0.64 0.05 38 1004.8
20260507170004 17 276 4.8 14.5 0.00 0.64 0.05 37 1005.1
20260507165503 17 275 4.8 19.3 0.00 0.64 0.05 37 1005.2
20260507165004 17 304 4.8 19.3 0.00 0.64 0.05 40 1005.4
20260507164503 17 314 6.4 25.7 0.00 0.64 0.05 35 1005.4
20260507164004 16 283 6.4 25.7 0.00 0.64 0.05 37 1005.2
20260507162504 16 267 6.4 20.9 0.00 0.64 0.05 43 1005.3
20260507162004 16 238 6.4 17.7 0.00 0.64 0.05 49 1005.4
20260507160503 15 276 3.2 22.5 0.00 0.64 0.05 50 1005.5
20260507160004 15 266 4.8 22.5 0.00 0.64 0.05 48 1005.6
20260507155004 16 252 4.8 25.7 0.00 0.64 0.05 55 1005.6
20260507154503 15 295 4.8 22.5 0.00 0.64 0.05 55 1005.7
20260507154004 15 298 4.8 22.5 0.00 0.64 0.05 54 1005.9
20260507153504 15 259 3.2 14.5 0.00 0.64 0.05 57 1005.9
20260507153004 15 291 3.2 14.5 0.00 0.64 0.05 56 1006.0
20260507152504 15 265 4.8 12.9 0.00 0.64 0.05 60 1006.0
20260507152004 15 231 4.8 19.3 0.00 0.64 0.05 55 1006.1
20260507151503 15 237 3.2 19.3 0.00 0.64 0.05 57 1006.1
20260507151003 15 263 3.2 9.7 0.00 0.64 0.05 57 1006.1
20260507150503 15 303 1.6 6.4 0.00 0.64 0.05 57 1006.3
20260507150005 15 322 3.2 16.1 0.00 0.64 0.05 53 1006.4
20260507145503 15 293 3.2 16.1 0.00 0.64 0.05 53 1006.4
20260507145004 15 285 3.2 14.5 0.00 0.64 0.05 55 1006.3
20260507144504 15 285 3.2 16.1 0.00 0.64 0.05 53 1006.4
20260507144004 15 247 3.2 16.1 0.00 0.64 0.05 56 1006.3
20260507143503 15 255 3.2 8.0 0.00 0.64 0.05 56 1006.2
20260507143004 15 255 3.2 9.7 0.00 0.64 0.05 54 1006.2
20260507142503 15 261 3.2 9.7 0.00 0.64 0.05 54 1006.3
20260507142004 15 275 3.2 12.9 0.00 0.64 0.05 56 1006.2
20260507141504 15 275 4.8 12.9 0.00 0.64 0.05 56 1006.2
20260507140503 15 283 3.2 16.1 0.00 0.64 0.05 56 1006.2
20260507140004 15 265 4.8 14.5 0.00 0.64 0.05 58 1006.1
20260507135503 15 259 3.2 14.5 0.00 0.64 0.05 56 1006.1
20260507135003 15 287 3.2 14.5 0.00 0.64 0.05 57 1006.1
20260507134004 15 297 1.6 17.7 0.00 0.64 0.05 56 1006.2
20260507133504 14 298 1.6 9.7 0.00 0.64 0.05 61 1006.3
20260507133004 14 274 3.2 9.7 0.00 0.64 0.05 58 1006.4
20260507132504 14 255 1.6 9.7 0.00 0.64 0.05 57 1006.5
20260507132004 14 277 1.6 9.7 0.00 0.64 0.05 60 1006.6
20260507131503 14 316 1.6 6.4 0.00 0.64 0.05 61 1006.6
20260507131004 13 324 3.2 11.3 0.00 0.64 0.05 60 1006.7
20260507130503 13 325 3.2 14.5 0.00 0.64 0.05 62 1006.5
20260507125004 13 322 3.2 20.9 0.00 0.64 0.05 61 1006.7
20260507124503 12 319 3.2 20.9 0.00 0.64 0.05 63 1006.6
20260507123503 12 270 3.2 11.3 0.00 0.64 0.05 68 1006.7
20260507123004 12 280 3.2 8.0 0.00 0.64 0.05 69 1006.7
20260507122504 12 239 3.2 8.0 0.00 0.64 0.05 72 1006.8
20260507122004 11 281 3.2 12.9 0.00 0.64 0.05 74 1006.9
20260507121503 11 282 3.2 12.9 0.00 0.64 0.05 74 1006.8
20260507121004 11 289 3.2 11.3 0.00 0.64 0.05 77 1006.8
20260507120503 11 324 1.6 11.3 0.00 0.64 0.05 78 1006.7
20260507120004 10 346 0.0 3.2 0.00 0.64 0.05 82 1006.8
20260507115503 10 306 1.6 11.3 0.00 0.64 0.05 83 1006.8
20260507115003 9 290 1.6 11.3 0.00 0.64 0.05 82 1006.8
20260507114503 9 256 1.6 6.4 0.00 0.64 0.05 82 1006.8
20260507113504 9 284 3.2 14.5 0.00 0.64 0.05 84 1006.6
20260507112504 8 340 0.0 4.8 0.00 0.64 0.05 85 1006.5
20260507112004 8 302 1.6 4.8 0.00 0.64 0.05 86 1006.5
20260507111503 8 310 1.6 6.4 0.00 0.64 0.05 85 1006.7
20260507110503 8 298 1.6 16.1 0.00 0.64 0.05 86 1006.6
20260507110005 8 311 1.6 12.9 0.00 0.64 0.05 89 1006.3
20260507105503 8 299 0.0 6.4 0.00 0.64 0.05 90 1006.4
20260507105003 8 313 1.6 16.1 0.00 0.64 0.05 89 1006.3
20260507104504 8 326 1.6 16.1 0.00 0.64 0.05 90 1006.3
20260507104004 8 294 1.6 9.7 0.00 0.64 0.05 91 1006.1
20260507103503 8 268 1.6 9.7 0.00 0.64 0.05 90 1006.3
20260507103004 8 267 1.6 8.0 0.00 0.64 0.05 90 1006.1
20260507102503 8 262 1.6 8.0 0.00 0.64 0.05 90 1006.1
20260507102006 8 239 1.6 6.4 0.00 0.64 0.05 91 1006.1
20260507101503 8 264 1.6 11.3 0.00 0.64 0.05 91 1006.1
20260507101003 8 276 1.6 11.3 0.00 0.64 0.05 92 1006.1
20260507100503 8 292 1.6 8.0 0.00 0.64 0.05 92 1006.1
20260507095004 8 332 0.0 6.4 0.00 0.64 0.05 94 1006.3
20260507094503 8 324 0.0 6.4 0.00 0.64 0.05 94 1006.3
20260507094003 8 309 1.6 6.4 0.00 0.64 0.05 94 1006.2
20260507093503 8 282 1.6 6.4 0.00 0.64 0.05 94 1006.2
20260507093004 8 289 1.6 9.7 0.00 0.64 0.05 94 1006.1
20260507092504 8 317 1.6 9.7 0.00 0.64 0.05 95 1006.1
20260507091503 8 301 0.0 4.8 0.03 0.64 0.05 96 1006.1
20260507091003 8 307 1.6 6.4 0.03 0.64 0.05 96 1006.3
20260507090503 8 305 1.6 6.4 0.05 0.64 0.05 95 1005.8
20260507085504 8 290 0.0 6.4 0.05 0.64 0.05 95 1005.9
20260507085004 8 278 0.0 3.2 0.05 0.64 0.05 96 1006.4
20260507084503 8 278 0.0 1.6 0.05 0.64 0.05 95 1006.0
20260507084004 8 278 0.0 1.6 0.05 0.64 0.05 95 1005.7
20260507083503 8 278 0.0 1.6 0.05 0.64 0.05 94 1005.7
20260507082503 8 327 0.0 3.2 0.05 0.64 0.05 94 1005.8
20260507082004 8 331 0.0 1.6 0.05 0.64 0.05 93 1005.8
20260507081504 8 309 1.6 4.8 0.03 0.61 0.03 92 1005.7
20260507081004 8 293 1.6 8.0 0.03 0.61 0.03 91 1005.5
20260507080004 9 274 0.0 6.4 0.00 0.58 0.00 90 1005.9
20260507075504 9 262 1.6 6.4 0.00 0.58 0.00 90 1006.0
20260507075004 9 250 0.0 4.8 0.00 0.58 0.00 89 1006.0
20260507074503 9 273 0.0 6.4 0.00 0.58 0.00 89 1005.8
20260507074003 9 348 0.0 6.4 0.00 0.58 0.00 90 1005.8
20260507073503 9 298 1.6 4.8 0.00 0.58 0.00 90 1005.7
20260507072504 9 304 0.0 4.8 0.00 0.58 0.00 90 1005.6
20260507072004 9 294 0.0 6.4 0.00 0.58 0.00 90 1005.5
20260507071503 9 310 0.0 6.4 0.00 0.58 0.00 89 1005.5
20260507071004 10 255 1.6 8.0 0.00 0.58 0.00 89 1005.6
20260507070504 10 270 3.2 8.0 0.00 0.58 0.00 90 1005.8
20260507070008 10 289 1.6 9.7 0.00 0.58 0.00 90 1005.6
20260507065003 10 332 1.6 17.7 0.00 0.58 0.00 90 1005.2
20260507064503 10 320 1.6 17.7 0.00 0.58 0.00 90 1005.4
20260507064003 10 314 1.6 11.3 0.00 0.58 0.00 91 1005.6
20260507063504 10 290 1.6 9.7 0.00 0.58 0.00 91 1005.3
20260507062004 10 294 1.6 11.3 0.00 0.58 0.00 91 1005.0
20260507061503 10 284 1.6 11.3 0.00 0.58 0.00 91 1005.1
20260507060504 10 290 0.0 6.4 0.00 0.58 0.00 93 1005.4
20260507060004 10 328 0.0 4.8 0.00 0.58 0.00 94 1005.5
20260507055503 10 333 0.0 4.8 0.00 0.58 0.00 94 1005.4
20260507055003 10 302 0.0 6.4 0.00 0.58 0.00 94 1005.4
20260507054503 10 299 0.0 6.4 0.00 0.58 0.00 94 1005.7
20260507054004 10 297 0.0 3.2 0.00 0.58 0.00 94 1005.6
20260507053005 11 233 0.0 8.0 0.00 0.58 0.00 94 1005.5
20260507052503 11 231 0.0 4.8 0.00 0.58 0.00 95 1005.4
20260507052004 11 264 1.6 4.8 0.00 0.58 0.00 94 1005.6
20260507051004 11 284 1.6 4.8 0.00 0.58 0.00 94 1005.5
20260507050504 11 303 0.0 8.0 0.00 0.58 0.00 94 1005.4
20260507050005 11 307 1.6 9.7 0.00 0.58 0.00 94 1005.1
20260507045503 11 307 1.6 9.7 0.00 0.58 0.00 94 1005.0
20260507045003 11 307 0.0 9.7 0.00 0.58 0.00 94 1005.3
20260507044503 11 336 0.0 4.8 0.00 0.58 0.00 94 1005.3
20260507044004 11 327 1.6 11.3 0.00 0.58 0.00 94 1005.4
20260507043503 11 320 1.6 12.9 0.00 0.58 0.00 94 1005.3
20260507043003 11 303 1.6 12.9 0.00 0.58 0.00 93 1005.4
20260507042503 11 238 0.0 4.8 0.00 0.58 0.00 95 1005.6
20260507042004 12 237 0.0 4.8 0.00 0.58 0.00 95 1005.6
20260507041504 12 231 1.6 6.4 0.00 0.58 0.00 95 1005.6
20260507041004 12 239 1.6 6.4 0.00 0.58 0.00 95 1005.6
20260507040503 12 277 0.0 3.2 0.00 0.58 0.00 95 1005.2
20260507040005 12 283 0.0 4.8 0.00 0.58 0.00 95 1005.1
20260507035503 12 286 0.0 4.8 0.03 0.58 0.58 95 1005.1
20260507035003 12 250 1.6 6.4 0.03 0.58 0.58 95 1004.9
20260507034503 12 238 1.6 6.4 0.03 0.58 0.58 94 1004.9
20260507034004 13 278 1.6 14.5 0.03 0.58 0.58 94 1004.8
20260507033503 13 286 3.2 14.5 0.03 0.58 0.58 94 1004.6
20260507033003 13 302 3.2 20.9 0.03 0.58 0.58 94 1004.7
20260507032504 13 305 3.2 20.9 0.03 0.58 0.58 94 1004.5
20260507032003 13 297 1.6 11.3 0.03 0.58 0.58 95 1004.6
20260507031504 14 317 1.6 8.0 0.03 0.58 0.58 95 1004.7
20260507030503 15 285 3.2 11.3 0.03 0.58 0.58 96 1004.5
20260507030004 15 270 1.6 11.3 0.03 0.58 0.58 97 1004.4
20260507025503 15 315 1.6 6.4 0.00 0.56 0.56 97 1004.2
20260507025003 15 269 1.6 6.4 0.00 0.56 0.56 97 1004.1
20260507024504 15 243 1.6 8.0 0.00 0.56 0.56 97 1004.1
20260507024004 15 230 1.6 8.0 0.00 0.56 0.56 97 1004.0
20260507023004 15 231 1.6 12.9 0.00 0.56 0.56 96 1003.9
20260507021503 15 229 3.2 12.9 0.00 0.56 0.56 96 1003.8
20260507021004 15 240 3.2 12.9 0.00 0.56 0.56 96 1003.8
20260507020503 15 242 3.2 12.9 0.00 0.56 0.56 96 1003.7
20260507020004 15 225 3.2 12.9 0.00 0.56 0.56 96 1003.9
20260507015503 15 203 1.6 12.9 0.00 0.56 0.56 96 1003.9
20260507015004 15 200 1.6 12.9 0.00 0.56 0.56 96 1004.0
20260507014503 15 208 3.2 9.7 0.00 0.56 0.56 96 1004.0
20260507014004 15 226 3.2 9.7 0.00 0.56 0.56 96 1004.0
20260507013503 15 253 3.2 12.9 0.00 0.56 0.56 96 1004.0
20260507013005 15 251 3.2 14.5 0.00 0.56 0.56 96 1004.0
20260507012503 15 221 3.2 14.5 0.00 0.56 0.56 96 1004.0
20260507012004 15 214 1.6 11.3 0.00 0.56 0.56 97 1003.9
20260507011003 15 243 3.2 11.3 0.00 0.56 0.56 96 1004.0
20260507010503 15 229 3.2 11.3 0.00 0.56 0.56 96 1004.1
20260507010004 15 219 1.6 9.7 0.00 0.56 0.56 96 1004.1
20260507005503 15 239 1.6 9.7 0.00 0.56 0.56 96 1004.1
20260507005004 15 231 3.2 11.3 0.00 0.56 0.56 96 1004.1
20260507004503 15 237 3.2 12.9 0.00 0.56 0.56 96 1004.0
20260507003504 15 249 3.2 16.1 0.03 0.56 0.56 96 1003.8
20260507003004 15 233 3.2 16.1 0.03 0.56 0.56 96 1003.8
20260507002504 15 214 3.2 14.5 0.03 0.56 0.56 97 1003.9
20260507002004 15 210 1.6 11.3 0.05 0.56 0.56 96 1003.8
20260507001503 15 206 3.2 11.3 0.08 0.56 0.56 96 1003.7
20260507001004 15 219 3.2 11.3 0.08 0.56 0.56 97 1003.7
20260507000503 15 228 1.6 9.7 0.10 0.56 0.56 97 1003.8
20260507000004 15 219 3.2 9.7 0.13 0.56 0.56 96 1003.8
20260506235503 15 227 3.2 14.5 0.13 0.56 0.56 96 1003.8
20260506235004 15 243 1.6 14.5 0.13 0.56 0.56 96 1003.7
20260506234503 15 248 1.6 6.4 0.13 0.56 0.56 96 1003.6
20260506233503 15 242 1.6 14.5 0.10 0.53 0.53 96 1003.7
20260506233004 15 247 1.6 14.5 0.10 0.53 0.53 96 1003.7
20260506232503 15 248 1.6 9.7 0.10 0.53 0.53 96 1003.7
20260506232004 15 233 1.6 8.0 0.10 0.51 0.51 96 1003.8
20260506231503 15 225 1.6 8.0 0.08 0.48 0.48 96 1003.9
20260506231004 15 208 1.6 8.0 0.10 0.48 0.48 96 1003.9
20260506230503 15 199 1.6 12.9 0.08 0.46 0.46 96 1004.1
20260506230003 15 207 1.6 12.9 0.08 0.43 0.43 96 1004.1
20260506225504 15 224 1.6 11.3 0.10 0.43 0.43 96 1004.0
20260506225003 15 259 3.2 11.3 0.10 0.43 0.43 95 1004.0
20260506224504 15 219 3.2 12.9 0.10 0.43 0.43 95 1004.0
20260506224004 15 226 3.2 12.9 0.13 0.43 0.43 95 1004.0
20260506223504 15 262 1.6 12.9 0.13 0.43 0.43 96 1004.1
20260506223004 15 243 1.6 12.9 0.13 0.43 0.43 96 1004.1
20260506222503 15 238 1.6 12.9 0.15 0.43 0.43 95 1004.2
20260506222004 15 247 1.6 6.4 0.13 0.41 0.41 95 1004.2
20260506221504 15 218 1.6 6.4 0.10 0.38 0.38 96 1004.3
20260506221004 15 201 1.6 9.7 0.10 0.38 0.38 96 1004.2
20260506220503 15 210 1.6 12.9 0.10 0.38 0.38 95 1004.4
20260506220004 15 239 1.6 12.9 0.08 0.36 0.36 95 1004.3
20260506215503 15 260 1.6 12.9 0.08 0.33 0.33 95 1004.3
20260506215004 15 221 3.2 14.5 0.08 0.33 0.33 95 1004.4
20260506214503 15 210 3.2 14.5 0.08 0.30 0.30 94 1004.4
20260506214004 15 214 3.2 14.5 0.08 0.30 0.30 95 1004.5
20260506213503 15 194 3.2 14.5 0.08 0.30 0.30 94 1004.5
20260506213004 15 209 3.2 17.7 0.08 0.30 0.30 94 1004.5
20260506212503 15 241 3.2 17.7 0.08 0.28 0.28 94 1004.5